"Pseudo-MPEC" for P125ubH

Created 2025 Jan 22 23:31:12 UT using Find_Orb

Click here for an explanation of pseudo-MPECs

 
 Astrometry: 
     P125ubH  C2025 01 07.41382008 31 44.298-05 26 39.76   ~194V 19.94GVNEOCPF51
     P125ubH* C2025 01 07.42506708 32 04.722-05 22 04.19   ~193V 20.44wXNEOCPF51
     P125ubH  C2025 01 07.44766308 32 45.109-05 12 57.40   ~193V 19.79wXNEOCPF51

Station data:
(F51) Pan-STARRS 1, Haleakala  (N20.707234 W156.255910)  US/Hawaii.
   Observers J. Bulger, T. Lowe, A. Schultz, M. Willman. Measurers K.
   Chambers, S. Chastel, T. de Boer, L. Denneau, J. Fairlamb, H. Flewelling,
   M. Huber, C.-C. Lin, E. Magnier, Y. Ramanjooloo, R. Wainscoat, R. Weryk.
   1.8-m Ritchey-Chrétien + CCD.

Orbital elements:  P125ubH
   Perihelion 2025 Jan 3.56213 +/- 24 TT = 13:29:28 (JD 2460679.06213)
Epoch 2025 Jan  7.0 TT = JDT 2460682.5   Earth MOID: 0.0188      AutoNEOCP
M   1.62137901 +/- 15               (J2000 ecliptic)
n   0.47162337 +/- 0.294            Peri.  352.14974 +/- 45
a   1.63457869 +/- 0.68             Node   110.81688 +/- 34
e   0.3881709 +/- 0.244             Incl.    8.22885 +/- 4.6
P   2.090/763.307d         H 27.06  G  0.15   U 11.9  SR
q 1.00008278 +/- 0.0281    Q 2.26907461 +/- 7.05
From 3 observations 2025 Jan. 7 (48.7 min); mean residual 1".13
Residuals in arcseconds: 
250107 F51  1.0-  1.1-    250107 F51  1.5+  1.6+    250107 F51  .51-  .54-    

Ephemerides (geocentric):
Date (UTC) HH   RA             Dec           delta  r     elong  mag " sig PA
---- --------  ------------   ------------  ------ ------ -----  --- --------
2025 01 23 00  12 28 49.948   +35 00 44.39  .06418 1.0212 123.6 23.1  36d 100
2025 01 23 01  12 29 00.884   +35 01 54.14  .06433 1.0213 123.6 23.1  36d 100
2025 01 23 02  12 29 11.761   +35 03 03.51  .06448 1.0214 123.6 23.1  36d 100
2025 01 23 03  12 29 22.580   +35 04 12.51  .06463 1.0215 123.6 23.1  36d 100
2025 01 23 04  12 29 33.342   +35 05 21.14  .06478 1.0216 123.6 23.1  36d 100
2025 01 23 05  12 29 44.046   +35 06 29.40  .06494 1.0217 123.6 23.1  36d 100
2025 01 23 06  12 29 54.693   +35 07 37.30  .06509 1.0218 123.6 23.1  36d 100
2025 01 23 07  12 30 05.283   +35 08 44.83  .06524 1.0218 123.6 23.1  36d 100
2025 01 23 08  12 30 15.817   +35 09 52.00  .06539 1.0219 123.6 23.1  36d 100
2025 01 23 09  12 30 26.294   +35 10 58.82  .06554 1.0220 123.6 23.1  36d 100
2025 01 23 10  12 30 36.716   +35 12 05.28  .06569 1.0221 123.6 23.2  36d 100
2025 01 23 11  12 30 47.082   +35 13 11.39  .06584 1.0222 123.6 23.2  36d 100
2025 01 23 12  12 30 57.393   +35 14 17.15  .06599 1.0223 123.6 23.2  36d 100
2025 01 23 13  12 31 07.649   +35 15 22.57  .06614 1.0224 123.5 23.2  36d 100
2025 01 23 14  12 31 17.850   +35 16 27.64  .06629 1.0225 123.5 23.2  36d 100
2025 01 23 15  12 31 27.997   +35 17 32.38  .06644 1.0226 123.5 23.2  36d 100
2025 01 23 16  12 31 38.090   +35 18 36.77  .06660 1.0227 123.5 23.2  36d 100
2025 01 23 17  12 31 48.129   +35 19 40.83  .06675 1.0227 123.5 23.2  36d 100
2025 01 23 18  12 31 58.115   +35 20 44.56  .06690 1.0228 123.5 23.2  36d 100
2025 01 23 19  12 32 08.048   +35 21 47.96  .06705 1.0229 123.5 23.2  36d 100
2025 01 23 20  12 32 17.927   +35 22 51.03  .06720 1.0230 123.5 23.2  36d 100
2025 01 23 21  12 32 27.754   +35 23 53.77  .06735 1.0231 123.5 23.2  36d 100
2025 01 23 22  12 32 37.529   +35 24 56.19  .06750 1.0232 123.5 23.2  36d 100
2025 01 23 23  12 32 47.252   +35 25 58.29  .06765 1.0233 123.5 23.2  36d 100
2025 01 24 00  12 32 56.922   +35 27 00.08  .06781 1.0234 123.5 23.2  36d 100
2025 01 24 01  12 33 06.542   +35 28 01.55  .06796 1.0235 123.5 23.2  36d 100
2025 01 24 02  12 33 16.110   +35 29 02.70  .06811 1.0236 123.5 23.2  36d 100
2025 01 24 03  12 33 25.627   +35 30 03.55  .06826 1.0237 123.5 23.2  36d 100
2025 01 24 04  12 33 35.094   +35 31 04.09  .06841 1.0238 123.5 23.2  36d 100
2025 01 24 05  12 33 44.510   +35 32 04.32  .06856 1.0239 123.5 23.2  36d 100
2025 01 24 06  12 33 53.876   +35 33 04.25  .06871 1.0240 123.5 23.3  36d 100
2025 01 24 07  12 34 03.192   +35 34 03.88  .06887 1.0241 123.5 23.3  36d 100
2025 01 24 08  12 34 12.458   +35 35 03.20  .06902 1.0241 123.5 23.3  36d 100
2025 01 24 09  12 34 21.675   +35 36 02.23  .06917 1.0242 123.5 23.3  36d 100
2025 01 24 10  12 34 30.843   +35 37 00.97  .06932 1.0243 123.5 23.3  36d 100
2025 01 24 11  12 34 39.962   +35 37 59.41  .06947 1.0244 123.5 23.3  36d 100
2025 01 24 12  12 34 49.033   +35 38 57.57  .06962 1.0245 123.5 23.3  36d 100
2025 01 24 13  12 34 58.055   +35 39 55.43  .06978 1.0246 123.5 23.3  36d 100
2025 01 24 14  12 35 07.029   +35 40 53.01  .06993 1.0247 123.5 23.3  36d 100
2025 01 24 15  12 35 15.955   +35 41 50.31  .07008 1.0248 123.5 23.3  36d 100
2025 01 24 16  12 35 24.833   +35 42 47.32  .07023 1.0249 123.5 23.3  36d 100
2025 01 24 17  12 35 33.665   +35 43 44.05  .07038 1.0250 123.5 23.3  36d 100
2025 01 24 18  12 35 42.449   +35 44 40.51  .07053 1.0251 123.5 23.3  36d 100
2025 01 24 19  12 35 51.186   +35 45 36.69  .07069 1.0252 123.5 23.3  36d 100
2025 01 24 20  12 35 59.877   +35 46 32.59  .07084 1.0253 123.5 23.3  36d 100
2025 01 24 21  12 36 08.521   +35 47 28.23  .07099 1.0254 123.5 23.3  36d 100
2025 01 24 22  12 36 17.119   +35 48 23.59  .07114 1.0255 123.5 23.3  36d 100
2025 01 24 23  12 36 25.671   +35 49 18.69  .07129 1.0256 123.5 23.3  36d 100